SCP
0 0 0 0 0 0 0 0 0 0 0 0 0 0 0 0 0 0 0 0 0 0 0 0 0 0 0 0 0 0 0 0 0 0 0 0 0 0 0 0 0 0 0
0 0 0 0 0 0 0 0 0 0 0 0 0 0 0 0 0 0 0 0 0 0 0 0 0 0 0 0 0 0 0 0 0 0 0 0 0 0 0 0 0 0 0
0 0 0 0 0 0 0 0 0 0 0 0 0 0 0 0 0 0 0 0 0 0 0 0 0 0 0 0 0 0 0 0 0 0 0 0 0 0 0 0 0 0 0
0 0 0 0 0 0 0 0 0 0 0 0 0 0 0 0 0 0 0 0 0 0 0 0 0 0 0 0 0 0 0 0 0 0 0 0 0 0 0 0 0 0 0
0 0 0 0 0 0 0 0 0 0 0 0 0 0 0 0 0 0 0 0 0 0 0 0 0 0 0 0 0 0 0 0 0 0 0 0 0 0 0 0 0 0 0
0 0 0 0 0 0 0 0 0 0 0 0 0 0 0 0 0 0 0 0 0 0 0 0 0 0 0 0 0 0 0 0 0 0 0 0 0 0 0 0 0 0 0
0 0 0 0 0 0 0 0 0 0 0 0 0 0 0 0 0 0 0 0 0 0 0 0 0 0 0 0 0 0 0 0 0 0 0 0 0 0 0 0 0 0 0
-0 -0 0 0 0 0 0 0 0 0 0 0 0 0 0 0 0 0 0 0 0 0 0 0 0 0 0 0 0 0 0 0 0 0 0 0 0 0 0 0 0 0 0
-0 -0 0 0 0 0 0 0 0 0 0 0 0 0 0 0 0 0 0 0 0 0 0 0 0 0 0 0 0 0 0 0 0 0 0 0 0 0 0 0 0 0 0
-0 -0 -0 -0 -0 -0 0 0 0 0 0 0 0 0 0 0 0 0 0 0 0 0 0 0 0 0 0 0 0 0 0 0 0 0 0 0 0 0 0 0 0 0 0
-0 -0 -0 -0 -0 -0 -0 -0 0 0 0 0 0 0 0 0 0 0 0 0 0 0 0 0 0 0 0 0 0 0 0 0 0 0 0 0 0 0 0 0 0 0 0
-0 -0 -0 -0 -0 -0 -0 -0 -0 -0 -0 0 0 0 0 0 0 0 0 0 0 0 0 0 0 0 0 0 0 0 0 0 0 0 0 0 0 0 0 0 0 0 0
-0 -0 -0 -0 -0 -0 -0 -0 -0 -0 -0 -0 -0 0 0 0 0 0 0 0 0 0 0 0 0 0 0 0 0 0 0 0 0 0 0 0 0 0 0 0 0 0 0
-0 -0 -0 -0 -0 -0 -0 -0 -0 -0 -0 -0 -0 0 0 0 0 0 0 0 0 0 0 0 0 0 0 0 0 0 0 0 0 0 0 0 0 0 0 0 0 0 0
-0 -0 -0 -0 -0 -0 -0 -0 -0 -0 -0 -0 -0 -0 0 0 0 0 0 0 0 0 0 0 0 0 0 0 0 0 0 0 0 0 0 0 0 0 0 0 0 0 0
-0 -0 -0 -0 -0 -0 -0 -0 -0 -0 -0 0 0 0 0 0 0 0 0 0 0 0 0 0 0 0 0 0 0 0 0 0 0 0 0 0 0 0 0 0 0 0 0
0 0 0 -0 -0 -0 -0 -0 -0 0 0 0 0 0 0 0 0 0 0 0 0 0 0 0 0 0 0 0 0 0 0 0 0 0 0 0 0 0 0 0 0 0 0
0 0 0 0 0 -0 -0 -0 -0 -0 -0 -0 0 0 0 0 0 0 0 0 0 0 0 0 0 0 0 0 0 0 0 0 0 0 0 0 0 0 0 0 0 0 0
0 0 0 0 0 0 0 0 0 0 0 0 0 0 0 0 0 0 0 0 0 0 0 0 0 0 0 0 0 0 0 0 0 0 0 0 0 0 0 0 0 0 0
0 0 0 0 0 0 0 0 0 0 0 0 0 0 0 0 0 0 0 0 0 0 0 0 0 0 0 0 0 0 0 0 0 0 0 0 0 0 0 0 0 0 0
0 0 0 0 0 0 0 0 0 0 0 0 0 0 0 0 0 0 0 0 0 0 0 0 0 0 0 0 0 0 0 0 0 0 0 0 0 0 0 0 0 0 0
0 0 0 0 0 0 0 0 0 0 0 0 0 0 0 0 0 0 0 0 0 0 0 0 0 0 0 0 0 0 0 0 0 0 0 0 0 0 0 0 0 0 0
0 0 0 0 0 0 0 0 0 0 0 0 0 0 0 0 0 0 0 0 0 0 0 0 0 0 0 0 0 0 0 0 0 0 0 0 0 0 0 0 0 0 0
0 0 0 0 0 0 0 0 0 0 0 0 0 0 0 0 0 0 0 0 0 0 0 0 0 0 0 0 0 0 0 0 0 0 0 0 0 0 0 0 0 0 0
0 0 0 0 0 0 0 0 0 0 0 0 0 0 0 0 0 0 0 0 0 0 0 0 0 0 0 0 0 0 0 0 0 0 0 0 0 0 0 0 0 0 0
0 0 0 0 0 0 0 0 0 0 0 0 0 0 0 0 0 0 0 0 0 0 0 0 0 0 0 0 0 0 0 0 0 0 0 0 0 0 0 0 0 0 0
Wind_Speed_500mb
53 47 36 22 9 3 16 27 35 39 41 39 41 45 48 55 64 73 81 81 82 82 81 79 83 80 77 77 72 69 63 55 54 44 39 40 42 40 39 35 32 32 34
57 53 47 36 22 5 7 17 27 33 34 33 34 35 38 43 49 55 63 72 79 82 81 83 82 79 79 78 75 72 66 58 55 50 46 44 41 37 37 34 33 31 33
68 57 53 50 42 32 16 2 13 22 29 32 32 32 32 35 40 45 51 57 66 74 78 80 79 80 79 80 80 75 66 61 57 54 49 47 45 42 40 35 33 30 33
76 73 67 62 54 45 33 21 8 6 17 27 32 32 31 33 36 40 45 49 54 61 70 74 77 80 79 79 79 76 69 65 62 58 53 50 46 44 40 36 33 30 32
70 72 75 71 66 54 41 35 25 13 4 12 22 30 33 33 34 38 42 45 49 53 59 66 72 73 74 76 78 77 73 70 67 62 59 53 49 45 40 36 34 31 32
65 69 68 68 69 68 63 49 36 29 18 9 7 17 24 30 37 35 34 39 43 47 50 55 61 66 70 74 74 73 71 72 70 65 60 54 47 41 38 36 36 31 28
64 70 68 66 70 67 64 61 56 47 36 32 20 6 10 19 29 33 34 34 34 36 40 44 52 61 65 70 71 71 70 67 62 55 55 49 41 37 39 39 34 31 27
51 54 53 58 65 67 66 62 59 58 53 45 38 29 15 5 18 27 31 31 32 30 32 36 42 50 60 65 69 73 72 69 66 63 58 47 44 45 45 36 33 29 26
46 48 52 53 50 51 57 64 63 57 52 51 44 35 28 23 10 15 20 22 23 25 26 30 35 44 51 58 65 68 71 69 67 64 59 56 50 48 42 36 34 28 26
47 50 51 52 49 48 47 45 46 51 54 47 41 39 36 30 23 12 4 11 19 23 25 27 29 36 47 55 63 67 70 70 72 72 66 60 55 50 45 38 35 29 25
47 48 50 50 49 48 46 44 43 37 35 40 46 37 33 33 29 25 16 4 6 17 21 25 30 33 40 49 56 62 64 63 69 69 64 59 55 53 47 39 37 32 27
49 55 57 57 55 52 49 46 41 39 36 31 27 28 42 35 30 29 23 18 10 2 13 19 25 32 39 43 50 53 56 62 65 67 66 63 60 58 48 39 39 33 28
59 56 61 64 64 61 58 55 51 44 40 40 37 33 25 29 40 29 27 21 16 11 8 17 22 22 31 39 44 48 58 64 67 67 68 66 63 55 45 47 42 35 29
72 73 65 64 68 68 66 61 56 50 46 42 40 42 38 30 24 29 38 30 23 17 13 9 18 22 24 28 38 50 57 62 65 67 65 64 62 57 54 51 43 39 33
75 78 77 71 64 66 65 63 59 52 46 44 41 43 45 41 33 32 29 32 35 33 27 18 7 10 19 27 32 42 52 59 64 64 65 68 66 61 60 56 47 45 41
74 72 71 69 65 59 60 61 55 55 48 42 42 40 44 44 43 40 36 32 31 29 34 25 15 7 8 19 26 35 45 53 59 62 65 67 65 62 62 60 54 51 44
66 64 64 64 62 58 54 56 61 54 54 50 42 45 45 46 46 46 44 41 38 35 30 27 26 15 13 11 20 30 37 44 50 57 61 63 61 61 63 63 58 55 51
53 52 52 52 53 53 51 50 50 55 59 58 49 45 41 43 45 46 47 49 44 39 34 33 30 29 20 14 14 19 29 35 41 46 53 60 60 62 67 68 64 62 57
43 43 44 45 44 47 48 48 48 50 53 55 57 48 40 41 43 42 43 45 47 47 43 38 39 37 32 30 22 16 20 30 37 42 46 49 57 65 68 67 66 65 61
36 37 39 42 44 45 46 49 51 50 49 52 53 51 48 48 45 40 38 42 45 50 52 50 45 45 44 37 35 34 23 24 32 38 44 48 49 54 64 68 67 68 66
37 38 38 40 40 42 44 45 47 50 52 51 48 45 46 48 53 50 44 41 42 46 53 56 57 52 52 49 43 41 41 31 30 35 41 43 44 47 52 58 63 67 65
44 44 44 45 46 46 47 49 50 51 52 53 50 43 41 48 52 52 50 46 43 44 49 56 59 61 57 56 55 50 44 41 37 32 36 39 41 42 45 52 59 66 68
41 42 43 44 46 48 50 51 53 54 55 54 53 50 47 47 49 50 49 45 44 44 44 49 55 60 63 61 60 63 57 47 43 43 35 37 41 43 45 48 58 67 72
42 45 48 48 50 52 55 56 57 57 58 58 58 56 53 51 51 51 51 50 50 47 45 47 50 55 60 65 66 68 70 64 52 47 48 39 37 41 45 46 52 61 67
43 46 48 50 51 53 55 56 58 60 60 59 59 58 57 56 55 52 51 53 54 54 51 48 49 51 55 62 68 69 71 74 71 57 54 53 47 40 43 47 50 56 65
46 48 50 52 54 56 58 60 63 65 66 66 64 61 59 57 55 54 53 52 54 57 57 55 51 50 51 56 63 69 73 77 83 72 62 57 57 52 46 47 49 54 62
Wind_Direction_500mb
21 22 23 28 36 224 219 223 233 240 247 255 254 249 246 242 242 242 243 242 239 237 235 233 233 234 234 234 236 238 240 240 240 243 237 234 233 233 234 240 257 269 281
24 28 30 31 35 56 194 216 224 230 236 240 247 250 248 247 246 247 246 244 240 238 235 233 232 231 232 231 234 236 236 234 236 239 237 231 228 226 237 247 257 269 282
31 31 34 35 36 39 36 6 226 230 231 231 236 244 248 252 253 252 251 249 246 243 240 237 234 232 230 230 230 232 231 231 233 235 234 230 228 232 239 245 254 268 281
36 37 38 38 35 33 33 35 33 245 235 233 234 235 240 249 254 255 255 253 249 245 243 240 236 234 233 232 231 232 231 230 230 230 230 230 230 233 237 245 254 263 274
33 34 37 40 40 40 35 35 33 32 355 253 240 239 239 240 247 252 253 254 253 250 246 242 238 235 233 234 234 233 230 229 228 227 227 228 231 234 240 247 257 265 276
26 30 30 32 36 38 39 38 38 40 33 11 285 248 242 242 241 241 246 253 254 253 249 245 239 235 231 230 233 235 236 233 229 228 230 232 234 236 239 246 255 266 285
18 16 20 25 26 30 36 37 40 41 39 38 35 357 262 249 244 243 244 241 244 249 250 247 242 235 231 229 228 230 231 231 232 236 235 236 235 236 238 243 251 265 277
14 16 18 19 17 17 19 27 35 36 38 38 36 37 39 333 257 249 248 250 244 238 241 242 241 236 233 229 228 227 226 225 224 224 227 227 227 229 236 241 251 262 275
0 4 7 10 14 16 13 11 14 21 30 33 35 35 32 23 351 276 259 251 248 245 240 238 237 232 228 228 230 228 226 223 222 224 226 228 229 234 238 241 247 256 271
346 351 354 357 1 5 5 9 11 7 7 15 27 28 31 34 28 3 300 252 245 239 237 238 239 234 225 222 225 226 225 221 220 222 223 226 230 234 236 238 245 252 260
332 336 339 344 348 350 353 355 356 359 3 358 358 8 22 25 34 40 40 43 232 246 249 246 237 233 229 226 222 223 223 222 221 224 226 228 231 235 236 233 240 246 255
320 325 328 331 334 336 337 339 341 341 342 348 352 353 353 5 20 26 34 41 42 326 251 253 245 234 228 223 223 219 217 218 221 223 223 225 228 232 230 230 237 240 248
317 316 318 320 322 324 325 325 325 328 328 330 336 339 353 348 345 355 9 10 20 10 329 267 253 242 230 220 217 212 215 214 216 219 220 223 227 232 227 231 233 236 243
312 315 315 314 314 315 315 316 316 317 318 318 319 320 324 331 334 330 334 343 352 353 344 322 268 246 238 225 213 213 215 216 218 219 220 223 226 224 225 230 230 233 237
307 310 312 314 313 309 309 310 311 311 310 308 309 306 309 308 313 313 314 317 325 333 342 348 337 260 238 236 219 219 217 215 217 217 218 222 225 223 225 227 226 231 234
304 306 309 311 312 312 309 305 305 306 305 300 295 293 289 288 291 291 292 292 292 300 311 322 337 340 266 243 240 234 230 222 221 221 221 223 225 223 224 224 222 228 232
306 308 307 309 310 313 313 311 309 305 306 305 298 292 287 286 283 280 279 276 276 276 275 281 297 314 330 284 248 241 245 241 235 230 228 228 226 224 224 225 223 226 226
307 309 310 312 314 316 317 317 315 313 311 309 306 303 296 288 280 275 273 273 272 268 267 262 258 277 286 299 293 260 249 245 243 241 236 231 227 224 223 222 222 225 225
309 311 313 315 316 316 316 316 316 314 312 312 311 312 309 295 286 280 273 271 267 263 257 250 249 246 249 269 270 273 264 253 246 242 240 236 230 225 223 225 226 225 225
311 314 315 315 315 315 315 315 316 315 314 313 313 316 315 307 297 283 273 268 262 261 259 254 245 240 239 232 244 260 254 259 253 246 241 238 235 229 226 225 225 225 224
315 316 315 313 314 313 313 312 311 311 311 311 312 312 310 305 302 305 298 283 272 261 258 255 250 243 238 235 226 226 240 247 254 251 246 241 237 232 229 226 224 225 224
314 315 314 313 312 311 309 307 306 304 304 304 306 306 301 297 298 297 296 294 287 274 263 258 251 250 244 236 231 225 222 227 237 255 252 246 241 234 231 226 220 221 222
317 317 317 316 315 315 314 312 310 307 306 305 304 301 299 294 294 295 294 290 283 277 270 263 257 249 248 243 234 230 222 215 221 224 247 255 244 236 231 227 222 219 217
317 317 316 316 316 316 316 315 313 311 309 306 304 304 302 299 295 293 292 292 290 286 278 271 264 257 249 245 240 232 228 220 215 220 221 232 251 244 236 230 226 222 220
314 312 312 315 315 316 316 316 315 313 310 306 304 302 300 298 296 293 289 287 285 284 283 277 269 263 255 248 243 238 231 223 219 214 219 220 225 237 239 234 230 224 218
313 313 313 313 313 314 315 316 317 316 314 310 305 300 299 298 296 293 288 282 280 279 278 275 272 267 261 253 246 242 235 227 222 216 215 217 221 224 230 232 230 228 222
Wind_Speed_850mb
53 47 36 22 9 3 16 27 35 39 41 39 41 45 48 55 64 73 81 81 82 82 81 79 83 80 77 77 72 69 63 55 54 44 39 40 42 40 39 35 32 32 34
57 53 47 36 22 5 7 17 27 33 34 33 34 35 38 43 49 55 63 72 79 82 81 83 82 79 79 78 75 72 66 58 55 50 46 44 41 37 37 34 33 31 33
68 57 53 50 42 32 16 2 13 22 29 32 32 32 32 35 40 45 51 57 66 74 78 80 79 80 79 80 80 75 66 61 57 54 49 47 45 42 40 35 33 30 33
76 73 67 62 54 45 33 21 8 6 17 27 32 32 31 33 36 40 45 49 54 61 70 74 77 80 79 79 79 76 69 65 62 58 53 50 46 44 40 36 33 30 32
70 72 75 71 66 54 41 35 25 13 4 12 22 30 33 33 34 38 42 45 49 53 59 66 72 73 74 76 78 77 73 70 67 62 59 53 49 45 40 36 34 31 32
65 69 68 68 69 68 63 49 36 29 18 9 7 17 24 30 37 35 34 39 43 47 50 55 61 66 70 74 74 73 71 72 70 65 60 54 47 41 38 36 36 31 28
64 70 68 66 70 67 64 61 56 47 36 32 20 6 10 19 29 33 34 34 34 36 40 44 52 61 65 70 71 71 70 67 62 55 55 49 41 37 39 39 34 31 27
51 54 53 58 65 67 66 62 59 58 53 45 38 29 15 5 18 27 31 31 32 30 32 36 42 50 60 65 69 73 72 69 66 63 58 47 44 45 45 36 33 29 26
46 48 52 53 50 51 57 64 63 57 52 51 44 35 28 23 10 15 20 22 23 25 26 30 35 44 51 58 65 68 71 69 67 64 59 56 50 48 42 36 34 28 26
47 50 51 52 49 48 47 45 46 51 54 47 41 39 36 30 23 12 4 11 19 23 25 27 29 36 47 55 63 67 70 70 72 72 66 60 55 50 45 38 35 29 25
47 48 50 50 49 48 46 44 43 37 35 40 46 37 33 33 29 25 16 4 6 17 21 25 30 33 40 49 56 62 64 63 69 69 64 59 55 53 47 39 37 32 27
49 55 57 57 55 52 49 46 41 39 36 31 27 28 42 35 30 29 23 18 10 2 13 19 25 32 39 43 50 53 56 62 65 67 66 63 60 58 48 39 39 33 28
59 56 61 64 64 61 58 55 51 44 40 40 37 33 25 29 40 29 27 21 16 11 8 17 22 22 31 39 44 48 58 64 67 67 68 66 63 55 45 47 42 35 29
72 73 65 64 68 68 66 61 56 50 46 42 40 42 38 30 24 29 38 30 23 17 13 9 18 22 24 28 38 50 57 62 65 67 65 64 62 57 54 51 43 39 33
75 78 77 71 64 66 65 63 59 52 46 44 41 43 45 41 33 32 29 32 35 33 27 18 7 10 19 27 32 42 52 59 64 64 65 68 66 61 60 56 47 45 41
74 72 71 69 65 59 60 61 55 55 48 42 42 40 44 44 43 40 36 32 31 29 34 25 15 7 8 19 26 35 45 53 59 62 65 67 65 62 62 60 54 51 44
66 64 64 64 62 58 54 56 61 54 54 50 42 45 45 46 46 46 44 41 38 35 30 27 26 15 13 11 20 30 37 44 50 57 61 63 61 61 63 63 58 55 51
53 52 52 52 53 53 51 50 50 55 59 58 49 45 41 43 45 46 47 49 44 39 34 33 30 29 20 14 14 19 29 35 41 46 53 60 60 62 67 68 64 62 57
43 43 44 45 44 47 48 48 48 50 53 55 57 48 40 41 43 42 43 45 47 47 43 38 39 37 32 30 22 16 20 30 37 42 46 49 57 65 68 67 66 65 61
36 37 39 42 44 45 46 49 51 50 49 52 53 51 48 48 45 40 38 42 45 50 52 50 45 45 44 37 35 34 23 24 32 38 44 48 49 54 64 68 67 68 66
37 38 38 40 40 42 44 45 47 50 52 51 48 45 46 48 53 50 44 41 42 46 53 56 57 52 52 49 43 41 41 31 30 35 41 43 44 47 52 58 63 67 65
44 44 44 45 46 46 47 49 50 51 52 53 50 43 41 48 52 52 50 46 43 44 49 56 59 61 57 56 55 50 44 41 37 32 36 39 41 42 45 52 59 66 68
41 42 43 44 46 48 50 51 53 54 55 54 53 50 47 47 49 50 49 45 44 44 44 49 55 60 63 61 60 63 57 47 43 43 35 37 41 43 45 48 58 67 72
42 45 48 48 50 52 55 56 57 57 58 58 58 56 53 51 51 51 51 50 50 47 45 47 50 55 60 65 66 68 70 64 52 47 48 39 37 41 45 46 52 61 67
43 46 48 50 51 53 55 56 58 60 60 59 59 58 57 56 55 52 51 53 54 54 51 48 49 51 55 62 68 69 71 74 71 57 54 53 47 40 43 47 50 56 65
46 48 50 52 54 56 58 60 63 65 66 66 64 61 59 57 55 54 53 52 54 57 57 55 51 50 51 56 63 69 73 77 83 72 62 57 57 52 46 47 49 54 62
Wind_Direction_850mb
21 22 23 28 36 224 219 223 233 240 247 255 254 249 246 242 242 242 243 242 239 237 235 233 233 234 234 234 236 238 240 240 240 243 237 234 233 233 234 240 257 269 281
24 28 30 31 35 56 194 216 224 230 236 240 247 250 248 247 246 247 246 244 240 238 235 233 232 231 232 231 234 236 236 234 236 239 237 231 228 226 237 247 257 269 282
31 31 34 35 36 39 36 6 226 230 231 231 236 244 248 252 253 252 251 249 246 243 240 237 234 232 230 230 230 232 231 231 233 235 234 230 228 232 239 245 254 268 281
36 37 38 38 35 33 33 35 33 245 235 233 234 235 240 249 254 255 255 253 249 245 243 240 236 234 233 232 231 232 231 230 230 230 230 230 230 233 237 245 254 263 274
33 34 37 40 40 40 35 35 33 32 355 253 240 239 239 240 247 252 253 254 253 250 246 242 238 235 233 234 234 233 230 229 228 227 227 228 231 234 240 247 257 265 276
26 30 30 32 36 38 39 38 38 40 33 11 285 248 242 242 241 241 246 253 254 253 249 245 239 235 231 230 233 235 236 233 229 228 230 232 234 236 239 246 255 266 285
18 16 20 25 26 30 36 37 40 41 39 38 35 357 262 249 244 243 244 241 244 249 250 247 242 235 231 229 228 230 231 231 232 236 235 236 235 236 238 243 251 265 277
14 16 18 19 17 17 19 27 35 36 38 38 36 37 39 333 257 249 248 250 244 238 241 242 241 236 233 229 228 227 226 225 224 224 227 227 227 229 236 241 251 262 275
0 4 7 10 14 16 13 11 14 21 30 33 35 35 32 23 351 276 259 251 248 245 240 238 237 232 228 228 230 228 226 223 222 224 226 228 229 234 238 241 247 256 271
346 351 354 357 1 5 5 9 11 7 7 15 27 28 31 34 28 3 300 252 245 239 237 238 239 234 225 222 225 226 225 221 220 222 223 226 230 234 236 238 245 252 260
332 336 339 344 348 350 353 355 356 359 3 358 358 8 22 25 34 40 40 43 232 246 249 246 237 233 229 226 222 223 223 222 221 224 226 228 231 235 236 233 240 246 255
320 325 328 331 334 336 337 339 341 341 342 348 352 353 353 5 20 26 34 41 42 326 251 253 245 234 228 223 223 219 217 218 221 223 223 225 228 232 230 230 237 240 248
317 316 318 320 322 324 325 325 325 328 328 330 336 339 353 348 345 355 9 10 20 10 329 267 253 242 230 220 217 212 215 214 216 219 220 223 227 232 227 231 233 236 243
312 315 315 314 314 315 315 316 316 317 318 318 319 320 324 331 334 330 334 343 352 353 344 322 268 246 238 225 213 213 215 216 218 219 220 223 226 224 225 230 230 233 237
307 310 312 314 313 309 309 310 311 311 310 308 309 306 309 308 313 313 314 317 325 333 342 348 337 260 238 236 219 219 217 215 217 217 218 222 225 223 225 227 226 231 234
304 306 309 311 312 312 309 305 305 306 305 300 295 293 289 288 291 291 292 292 292 300 311 322 337 340 266 243 240 234 230 222 221 221 221 223 225 223 224 224 222 228 232
306 308 307 309 310 313 313 311 309 305 306 305 298 292 287 286 283 280 279 276 276 276 275 281 297 314 330 284 248 241 245 241 235 230 228 228 226 224 224 225 223 226 226
307 309 310 312 314 316 317 317 315 313 311 309 306 303 296 288 280 275 273 273 272 268 267 262 258 277 286 299 293 260 249 245 243 241 236 231 227 224 223 222 222 225 225
309 311 313 315 316 316 316 316 316 314 312 312 311 312 309 295 286 280 273 271 267 263 257 250 249 246 249 269 270 273 264 253 246 242 240 236 230 225 223 225 226 225 225
311 314 315 315 315 315 315 315 316 315 314 313 313 316 315 307 297 283 273 268 262 261 259 254 245 240 239 232 244 260 254 259 253 246 241 238 235 229 226 225 225 225 224
315 316 315 313 314 313 313 312 311 311 311 311 312 312 310 305 302 305 298 283 272 261 258 255 250 243 238 235 226 226 240 247 254 251 246 241 237 232 229 226 224 225 224
314 315 314 313 312 311 309 307 306 304 304 304 306 306 301 297 298 297 296 294 287 274 263 258 251 250 244 236 231 225 222 227 237 255 252 246 241 234 231 226 220 221 222
317 317 317 316 315 315 314 312 310 307 306 305 304 301 299 294 294 295 294 290 283 277 270 263 257 249 248 243 234 230 222 215 221 224 247 255 244 236 231 227 222 219 217
317 317 316 316 316 316 316 315 313 311 309 306 304 304 302 299 295 293 292 292 290 286 278 271 264 257 249 245 240 232 228 220 215 220 221 232 251 244 236 230 226 222 220
314 312 312 315 315 316 316 316 315 313 310 306 304 302 300 298 296 293 289 287 285 284 283 277 269 263 255 248 243 238 231 223 219 214 219 220 225 237 239 234 230 224 218
313 313 313 313 313 314 315 316 317 316 314 310 305 300 299 298 296 293 288 282 280 279 278 275 272 267 261 253 246 242 235 227 222 216 215 217 221 224 230 232 230 228 222